Skip Page Navigation
NASA JPL Caltech
NASA Logo - Jet Propulsion Laboratory + View the NASA Portal
+ Near-Earth Object (NEO) Program
Search JPL
JPL Home Earth Solar System Stars & Galaxies Technology
JPL Solar System Dynamics
BODIES ORBITS EPHEMERIDES TOOLS PHYSICAL DATA DISCOVERY FAQ SITE MAP
JPL Small-Body Database Browser
Search: [ help ]  
12435 Sudachi (1996 BX)
Classification: Main-belt Asteroid          SPK-ID: 2012435
Ephemeris | Orbit Diagram | Orbital Elements | Physical Parameters | Discovery Circumstances ]

[ show orbit diagram ]
Orbital Elements at Epoch 2457000.5 (2014-Dec-09.0) TDB
Reference: JPL 11 (heliocentric ecliptic J2000)
 Element Value Uncertainty (1-sigma)   Units 
e .0189815531063352 5.5212e-08  
a 2.894246573228659 2.5153e-08 AU
q 2.839309278196091 1.5701e-07 AU
i 3.266527259228717 5.7926e-06 deg
node 91.09400076885628 9.8081e-05 deg
peri 107.9555470600992 0.00018683 deg
M 225.2397287122065 0.00016195 deg
tp 2457673.726332122679
(2016-Oct-12.22633212)
0.00081235 JED
period 1798.463874019505
4.92
2.3445e-05
6.419e-08
d
yr
n .200170826448358 2.6094e-09 deg/d
Q 2.949183868261227 2.563e-08 AU
  Orbit Determination Parameters
   # obs. used (total)      1241  
   data-arc span      6922 days (18.95 yr)  
   first obs. used      1996-01-17  
   last obs. used      2014-12-30  
   planetary ephem.      DE431  
   SB-pert. ephem.      SB431-BIG16  
   condition code      0  
   fit RMS      .51537  
   data source      ORB  
   producer      Otto Matic  
   solution date      2015-Feb-04 13:34:52  

Additional Information
 Earth MOID = 1.83819 AU 
 T_jup = 3.287 
[ show covariance matrix ]

Ephemeris | Orbit Diagram | Orbital Elements | Physical Parameters | Discovery Circumstances ]

Physical Parameter Table
Parameter Symbol Value Units Sigma Reference Notes
absolute magnitude H 13.4 mag n/a MPO319240  

12435 Sudachi           Discovered 1996 Jan. 17 by K. Endate and K. Watanabe at Kitami.
Sudachi (Citrus sudachi) is a small, round, green citrus fruit that is a specialty of Tokushima prefecture. The name was selected among proposals by children who attended the Fureai Space Festival, held in Anan city on the 2008 Japanese Space Day.
NOTE: some special characters may not display properly (any characters within {} are an attempt to place the proper accent above a character)
Reference: 20090409/MPCPages.arcLast Updated: 2009-04-10

Alternate Designations
 1996 BX = 1997 GG6 
Ephemeris | Orbit Diagram | Orbital Elements | Physical Parameters | Discovery Circumstances ]
ABOUT SSD CREDITS/AWARDS PRIVACY/COPYRIGHT GLOSSARY LINKS
FirstGov 2015-Mar-06 12:36 UT
(server date/time)  
NASA Home Page
Site Manager:   Ryan S. Park
Webmaster  Alan B. Chamberlin